Location: Canyon Rim
(40.8777°N, 111.8641°W)
Time: 07:09:06
(UTC+00:00)

X-37B - Pass Details

Date: 27 April 2021
Orbit: 386 x 389 km, 45.0° (Epoch: 08 May)

Event Time Altitude Azimuth Distance (km) Brightness Sun altitude
Exits shadow 10:17:10 45° 67° (ENE) 538 1.6 -22.2°
Drops below altitude 10° 10:19:38 10° 97° (E) 1,411 3.9 -21.9°
Sets 10:21:44 0° 101° (ESE) 2,263 5.0 -21.6°
